RH
59 60 61 61 61 61 61 62 62 62 62 62 61 61 60 59 60 59 57 55 54 54 56 56 54 53 58 63 68 72 74 74 73 72 71 70 70 72 75 79 82 86 89 90 92 94 95 97 98 99 101 102 102 103 103 104 105 105 104 104 103 101 99 97 95 92 90 89 87 86 85 83 81 80 80 78 76 75 73 73 72 72 72 72 72 71
47 47 46 46 45 45 45 44 44 44 44 43 43 43 43 42 43 46 47 47 47 50 53 55 55 55 59 66 73 77 81 83 85 85 85 84 84 85 90 94 96 98 100 100 102 103 103 104 105 106 106 107 107 107 106 105 104 103 101 99 96 94 91 88 86 84 83 83 81 81 80 79 77 76 76 76 75 74 73 73 74 74 74 73 72 71
39 39 39 39 38 38 38 37 37 37 36 37 38 39 41 41 43 47 50 50 51 52 54 55 55 56 62 73 83 89 96 101 102 102 101 100 100 99 100 102 101 102 103 102 105 106 105 106 107 106 105 103 102 99 96 93 90 88 86 84 83 81 80 79 79 79 79 79 78 77 76 75 74 72 71 70 70 69 67 66 64 63 63 62 60 57
39 39 39 39 39 38 38 37 38 38 38 39 41 43 45 46 47 51 56 60 62 66 67 67 67 70 79 93 102 103 105 107 105 104 104 104 105 105 106 106 104 103 102 100 99 98 95 92 91 88 86 84 82 80 78 77 76 75 74 74 73 72 72 72 72 71 70 69 68 66 64 61 59 57 55 54 53 52 51 50 49 47 45 44 42 39
44 43 42 41 40 40 41 41 44 47 49 48 49 52 55 58 61 63 69 78 86 91 91 89 86 85 94 105 108 108 108 108 107 107 107 106 106 106 104 100 96 92 89 84 81 77 74 72 70 69 68 67 66 66 66 65 64 63 62 59 58 56 55 53 52 51 49 48 48 46 45 44 43 43 42 42 42 42 42 42 42 41 39 38 37 36
45 43 43 45 46 48 51 54 58 63 67 66 64 67 72 77 82 85 89 94 103 110 110 108 99 88 92 103 106 105 104 103 100 99 97 93 90 87 83 80 77 73 71 68 65 62 59 58 56 54 53 51 50 50 49 47 46 44 42 40 39 38 38 38 38 38 38 38 39 39 40 41 41 42 42 43 45 46 47 47 47 46 46 45 45 43
55 56 57 60 62 64 68 71 74 78 84 86 87 90 94 98 101 103 102 101 102 103 99 95 86 71 68 75 78 78 76 75 72 70 67 65 63 61 60 59 57 55 53 51 49 47 45 43 42 41 40 40 40 40 39 39 38 37 37 37 37 39 39 40 41 41 42 42 43 44 45 47 48 50 51 52 53 54 55 55 55 54 53 52 51 49
71 72 73 75 78 81 84 87 90 93 97 101 101 102 101 98 94 88 83 78 72 70 66 62 56 47 43 44 47 48 47 47 45 43 42 41 41 41 41 40 40 40 39 39 40 40 40 40 40 41 41 42 42 42 42 42 41 41 41 41 42 43 43 43 44 44 44 45 46 47 47 49 50 52 54 54 55 55 55 55 54 54 52 51 49 46
83 85 85 88 91 93 95 95 93 91 89 87 84 81 76 70 66 61 57 53 49 47 46 43 40 36 32 31 33 33 32 33 32 32 33 34 34 35 36 37 38 39 40 41 41 41 42 42 42 43 43 43 43 43 43 43 43 42 42 42 43 43 44 44 44 44 44 45 46 47 48 50 50 51 52 53 55 55 55 55 54 53 52 49 46 43
82 83 82 83 83 82 80 76 72 68 64 62 59 56 53 50 47 45 43 41 39 38 37 36 35 34 31 31 33 32 31 32 33 34 35 35 36 36 37 38 39 39 40 40 41 41 41 41 42 42 42 42 42 42 42 42 42 42 42 43 44 44 45 45 45 46 46 47 48 49 51 52 53 54 55 56 57 57 57 58 58 57 56 53 51 48
60 59 59 60 60 59 57 53 50 48 45 44 43 41 40 39 37 37 37 36 36 37 36 36 35 35 33 33 33 33 33 33 34 34 35 35 36 37 37 38 39 39 39 39 39 40 40 40 41 41 41 41 40 40 41 41 42 42 42 43 43 44 44 44 45 45 45 46 47 49 50 51 52 53 54 55 56 57 57 58 58 56 55 54 52 50
46 45 44 43 43 43 42 39 37 35 33 33 33 33 34 35 35 35 36 36 36 36 35 35 35 35 35 33 33 34 34 35 35 35 36 36 37 37 38 38 39 39 39 40 40 41 41 41 41 41 41 41 41 42 43 43 44 44 44 45 45 45 46 46 46 46 47 47 48 49 49 50 51 52 54 55 55 55 55 54 53 52 52 51 51 51
34 35 35 35 36 36 36 36 35 34 33 33 32 32 33 33 34 35 35 35 36 36 36 36 36 36 36 35 34 34 34 34 34 34 35 36 36 36 37 37 38 38 39 39 39 40 40 40 40 41 41 42 43 44 44 45 45 46 46 47 48 48 48 49 49 49 50 50 51 52 52 53 53 54 54 53 53 52 51 51 51 51 51 52 52 52
38 39 39 40 40 39 40 40 39 38 37 37 36 35 35 34 34 34 34 35 35 36 37 37 37 36 36 36 35 35 35 35 36 36 36 36 36 37 37 37 37 37 38 38 38 38 39 40 41 42 43 44 45 45 46 47 47 48 49 50 51 51 52 53 54 54 55 55 56 56 56 56 56 55 55 54 54 54 55 55 56 56 57 57 57 57
41 40 40 40 39 39 39 39 38 38 37 36 35 34 34 33 33 33 33 33 34 35 37 38 38 38 38 38 38 38 38 38 38 38 38 38 38 38 38 38 37 37 37 37 38 38 39 40 41 42 42 43 43 44 45 46 46 48 49 49 51 51 52 53 54 55 55 56 56 56 56 57 57 58 59 59 60 60 61 61 61 62 62 62 63 63
38 38 37 37 36 36 35 35 34 34 35 35 35 35 36 36 36 36 36 36 35 35 36 37 37 37 37 37 37 37 37 37 36 36 36 35 34 34 33 32 31 30 30 29 29 30 30 30 30 30 30 31 31 32 33 34 35 36 36 37 38 39 40 40 41 42 42 43 44 44 45 45 46 47 48 50 50 51 51 52 53 54 55 56 56 58
38 37 36 35 34 34 34 34 35 35 36 36 37 37 37 37 37 37 37 36 35 35 34 34 34 34 33 33 32 31 30 29 28 27 25 24 23 22 21 20 20 19 19 18 18 18 17 17 17 17 18 18 19 19 20 20 20 20 21 21 22 23 23 23 24 24 25 25 26 26 26 27 27 27 28 29 29 30 31 31 33 34 35 36 36 37
38 37 37 37 37 36 36 36 36 36 36 36 37 37 37 37 36 35 34 33 32 32 31 29 28 26 24 22 20 19 19 18 17 16 15 15 15 14 14 13 13 13 13 13 13 13 13 13 13 13 13 14 14 14 14 14 14 14 14 15 15 15 15 15 16 16 16 16 16 17 17 17 17 17 17 17 18 18 18 18 19 19 20 20 21 21
38 38 38 38 37 37 37 37 37 37 37 36 36 35 34 34 33 31 30 27 24 23 21 19 17 15 13 13 12 11 11 11 11 11 11 12 12 12 12 12 12 12 12 12 12 12 12 12 13 13 13 13 13 13 14 13 13 14 13 14 14 14 14 14 14 14 15 15 15 15 15 15 15 15 15 15 15 15 15 16 16 16 16 16 16 17
39 39 38 38 38 38 38 39 40 40 40 39 38 36 34 32 29 26 22 19 15 13 12 11 10 10 9 9 10 10 10 10 10 10 10 10 11 11 11 11 11 10 10 10 10 11 11 11 11 11 11 12 12 12 12 12 12 12 12 12 12 12 12 12 12 12 12 13 13 13 13 13 13 14 14 14 14 14 14 14 14 14 15 15 15 15
39 38 38 39 39 40 40 41 41 41 40 38 35 32 28 24 20 17 14 12 11 10 10 10 10 9 9 9 10 9 9 10 9 9 9 9 9 9 9 9 9 9 8 8 8 8 8 8 8 8 8 8 8 8 8 8 8 8 8 8 8 9 9 9 9 9 9 9 10 10 10 10 11 11 11 11 11 12 12 12 12 12 12 12 12 12
40 40 41 42 43 43 42 41 39 37 33 28 24 20 17 14 13 12 12 11 11 11 10 10 10 9 9 9 9 9 9 9 9 9 9 8 9 8 8 8 8 8 8 8 7 7 7 7 7 7 7 7 7 7 7 7 7 7 7 7 7 7 7 7 7 7 7 7 7 8 8 8 9 9 9 9 9 9 9 10 10 10 10 10 10 10
43 44 44 44 43 41 39 35 31 27 22 18 14 12 10 10 11 11 12 11 11 11 11 11 10 10 9 9 9 9 8 8 8 8 7 7 7 7 7 7 7 7 7 7 7 7 7 7 7 7 7 8 8 8 8 8 8 7 7 7 7 7 7 7 7 7 7 7 7 7 7 7 7 7 7 8 7 8 8 8 8 8 8 9 8 8
47 47 47 44 41 37 32 27 23 18 15 13 11 11 11 11 12 13 13 12 11 11 11 11 11 10 9 9 9 8 8 7 7 7 7 7 7 7 7 7 7 7 7 7 7 7 8 7 8 8 8 8 8 8 8 8 8 7 8 8 7 8 8 7 8 7 7 7 7 7 7 7 7 7 7 7 7 7 7 7 7 7 7 7 7 8
47 45 43 39 34 30 25 21 17 14 13 13 13 14 14 13 13 13 12 12 11 11 10 10 10 10 9 9 8 8 8 7 7 7 7 7 7 7 7 7 7 7 7 8 7 7 8 7 8 8 8 8 7 8 7 7 7 7 7 7 7 7 7 7 7 7 7 7 7 7 7 7 7 7 7 7 7 7 7 7 7 6 7 7 6 7
45 41 36 31 26 22 18 15 12 11 12 13 14 14 13 12 12 11 11 11 10 10 10 9 9 9 9 8 8 8 8 8 8 8 8 8 8 8 8 8 8 8 8 8 8 8 8 7 8 8 7 8 7 7 7 7 7 7 7 7 7 7 7 7 7 7 7 7 7 7 7 7 7 7 7 7 7 7 7 7 6 6 6 6 6 6
40 35 30 25 20 17 14 11 10 11 11 12 13 13 12 11 11 10 10 10 9 10 10 9 9 9 9 9 9 9 9 8 8 9 9 9 8 8 9 9 9 9 9 9 8 8 8 8 8 8 8 8 8 7 7 7 7 7 7 7 7 7 7 7 7 7 7 6 6 6 6 6 6 6 6 6 6 6 6 6 6 6 6 6 6 6
36 30 25 21 18 15 12 11 11 11 12 13 12 12 11 11 10 9 10 10 10 10 10 10 10 9 9 10 9 9 10 9 9 10 10 10 10 10 11 10 10 10 10 10 10 10 10 9 9 9 9 8 8 8 7 7 7 7 7 7 7 7 6 6 6 6 6 6 6 6 6 6 6 6 6 6 6 6 6 6 6 6 6 6 6 6
33 27 23 20 16 13 12 11 11 12 12 13 13 12 12 12 11 10 10 12 11 11 11 11 11 11 10 10 10 10 10 10 10 11 12 12 12 12 12 12 12 12 11 11 12 11 11 11 10 9 9 9 8 8 8 7 7 7 7 6 6 6 6 6 6 6 6 6 6 6 6 6 6 6 6 6 6 6 6 6 6 6 6 6 6 6
32 27 23 20 16 13 12 11 12 12 12 13 13 14 14 14 13 11 12 13 13 12 12 11 11 12 11 11 11 11 12 12 12 12 13 13 13 13 14 14 13 13 12 12 12 11 11 10 10 9 9 9 8 8 7 7 7 6 6 6 6 6 6 6 6 5 6 5 5 5 5 5 5 5 5 5 5 5 5 5 6 5 5 5 5 5
32 27 23 20 16 13 12 12 12 13 13 14 14 14 15 15 14 13 12 13 14 13 13 12 12 12 12 12 12 12 13 14 13 13 14 15 15 15 14 14 14 13 12 12 11 11 10 9 9 8 8 7 7 7 7 6 6 6 6 6 6 6 6 6 6 5 5 5 5 5 5 5 5 5 5 5 5 5 5 5 5 5 5 5 5 5
33 28 25 22 18 15 14 13 14 14 14 14 14 14 14 15 15 14 13 14 14 14 14 13 12 12 12 12 13 13 14 14 13 13 15 15 15 15 14 14 14 13 12 11 11 10 9 8 8 7 7 7 7 7 6 6 6 6 6 6 6 6 6 5 5 5 6 6 5 6 6 6 6 6 6 6 5 5 5 5 5 5 5 5 5 5
35 29 27 24 21 18 16 15 15 15 16 16 15 14 14 15 16 15 14 14 14 13 13 12 12 13 13 12 13 14 14 15 14 13 14 14 14 15 14 13 12 12 11 11 10 10 9 8 8 8 8 7 7 7 6 6 6 6 6 6 6 6 6 6 6 6 6 6 6 6 6 6 6 6 6 6 6 6 6 6 6 6 6 6 5 5
39 33 30 27 24 22 21 20 18 16 16 15 14 15 15 15 16 16 14 14 14 13 12 12 13 13 13 13 13 14 16 16 15 14 15 15 14 14 14 13 12 11 11 11 11 10 10 9 9 9 8 8 8 7 7 7 6 6 6 6 6 6 6 6 6 6 6 6 6 6 6 6 6 6 6 6 6 6 5 6 5 5 6 5 5 5
44 39 34 30 28 26 25 24 21 18 16 15 15 16 16 15 15 16 16 14 13 13 12 12 13 12 13 13 13 14 16 17 16 15 15 15 14 14 13 13 12 12 12 12 12 12 11 10 10 10 9 9 8 8 8 7 7 7 7 7 6 6 6 6 6 6 6 6 6 6 6 6 6 6 6 6 5 5 5 5 5 5 5 5 5 5
48 43 37 34 31 29 27 26 25 24 22 19 18 17 16 15 15 15 16 14 13 13 12 12 12 12 12 12 12 13 14 16 16 14 15 15 14 14 14 13 13 13 14 14 13 13 12 11 11 11 10 10 10 9 9 8 8 7 7 7 7 7 7 7 6 7 6 6 6 6 6 6 6 5 5 5 5 5 5 5 5 5 5 5 5 5
51 46 40 36 33 29 28 28 27 28 26 22 19 17 15 15 14 13 14 14 13 12 12 12 11 12 12 13 13 13 13 15 15 14 14 15 14 15 14 14 14 14 14 15 14 14 13 12 11 11 11 11 10 10 9 8 8 8 7 7 7 7 7 7 6 7 6 6 6 6 6 6 5 5 5 5 5 5 5 5 5 5 5 5 5 5
54 51 45 40 35 32 30 28 26 25 24 21 18 17 15 14 14 13 13 14 14 13 13 13 12 13 13 13 13 13 13 14 15 13 13 14 15 15 15 14 14 14 14 14 14 14 13 12 11 11 10 10 10 9 9 8 8 8 7 7 7 7 7 7 6 6 6 6 6 6 6 6 5 6 6 5 5 5 5 5 5 5 5 5 5 5
58 57 53 47 41 36 33 32 30 27 26 26 23 20 18 17 15 14 13 14 14 13 12 13 13 13 13 13 13 13 12 13 14 14 13 13 14 14 14 14 13 13 13 13 13 13 12 11 11 10 9 9 9 9 8 8 8 7 7 7 6 6 6 6 6 6 6 6 6 5 5 5 5 5 6 5 5 5 5 5 5 5 5 5 5 5
63 61 60 56 49 42 36 35 36 34 33 34 31 26 23 21 18 16 15 14 14 14 13 13 13 13 13 14 13 13 13 12 13 14 14 14 14 14 14 13 13 12 12 12 12 12 11 10 10 9 9 8 8 8 8 8 7 7 7 7 6 6 6 6 6 6 6 6 6 6 5 5 6 6 5 6 6 5 5 5 5 6 6 5 5 5
68 65 65 62 57 52 44 36 36 38 37 35 35 31 27 24 22 20 19 16 15 15 16 14 14 14 14 15 14 14 15 15 15 15 15 15 15 14 14 13 13 12 12 12 12 11 11 10 9 8 8 7 7 8 7 7 7 7 7 6 6 6 6 6 6 6 6 6 6 6 6 5 6 6 6 6 6 6 6 6 6 6 6 6 6 5
72 70 70 69 65 62 57 44 36 37 36 33 34 35 32 30 29 26 24 22 20 19 19 18 16 15 16 17 17 17 17 17 17 17 16 16 16 16 15 14 14 13 13 12 12 11 10 10 9 8 7 7 7 7 7 7 7 7 7 6 6 6 6 6 6 6 6 6 6 6 6 6 6 6 6 6 6 6 6 6 6 6 6 6 6 6
75 74 74 75 74 70 68 61 47 39 40 40 41 43 41 38 36 32 28 26 24 21 20 20 19 18 18 19 20 19 17 17 17 17 17 16 16 16 16 15 14 14 14 13 12 11 10 9 8 7 7 6 7 7 7 7 7 7 7 6 6 6 6 6 6 6 6 6 7 6 6 6 6 6 6 6 6 6 6 6 5 5 6 5 5 5
78 79 77 79 82 80 80 81 72 60 57 58 55 55 54 49 43 39 34 28 25 23 22 21 21 20 19 19 20 19 17 17 17 17 17 17 17 16 16 16 15 14 14 13 11 10 9 9 8 7 7 6 6 7 6 7 7 7 7 6 6 6 7 6 6 6 6 7 7 6 6 6 6 6 5 5 5 5 5 5 5 5 5 5 5 5
80 84 82 80 86 87 86 91 91 82 76 75 70 66 63 58 52 47 42 33 27 25 24 22 22 22 20 19 19 19 18 17 17 17 16 16 17 16 16 15 15 14 14 12 11 10 9 8 8 7 7 6 6 6 6 6 7 7 7 6 6 6 7 7 6 6 6 7 7 6 6 6 5 5 5 5 5 5 5 5 5 5 5 4 4 5
82 85 86 83 85 88 88 92 96 93 87 85 83 78 73 66 58 53 49 41 33 29 26 24 23 23 22 20 19 19 18 17 17 17 17 16 16 16 16 15 15 14 13 12 11 10 9 8 8 7 7 7 6 6 6 6 7 7 7 6 7 7 7 7 7 6 6 6 6 6 6 5 5 5 4 4 4 4 4 5 5 5 5 5 4 4
84 86 89 88 85 87 88 90 97 100 95 91 92 91 87 79 67 58 53 47 39 33 30 27 24 24 23 21 20 20 19 18 17 18 17 16 16 16 16 15 15 14 13 12 11 10 9 8 8 7 7 7 7 6 6 6 7 7 7 7 7 7 7 7 7 6 6 6 6 5 5 5 5 4 4 4 4 4 4 4 5 5 5 5 5 5
83 85 91 93 91 90 89 89 95 104 104 100 98 98 96 90 77 63 56 51 43 36 32 28 26 24 23 22 21 20 19 18 17 17 17 17 16 16 16 15 14 13 13 11 10 9 9 8 8 8 7 7 7 7 6 7 7 7 7 7 7 7 7 6 6 6 6 5 5 5 5 4 4 4 4 4 4 4 4 4 5 5 5 5 5 5
81 83 88 93 95 94 93 89 90 98 104 104 101 98 96 93 83 68 58 51 44 36 32 29 26 25 24 23 21 20 19 19 17 17 17 17 16 16 15 14 14 13 12 11 10 9 8 8 8 8 7 7 7 7 7 7 7 7 7 7 6 6 6 6 6 5 5 5 5 4 5 5 4 4 5 4 4 4 4 4 5 5 6 6 6 6
84 84 85 90 95 99 100 97 92 93 100 103 101 98 94 91 85 72 61 53 45 38 33 29 26 25 24 22 21 19 19 18 17 17 17 17 16 16 15 14 13 12 11 10 10 9 8 8 8 7 8 8 7 7 7 7 7 7 7 6 6 6 5 5 5 5 5 5 5 5 5 5 5 5 5 5 5 5 4 4 5 6 6 7 6 6
89 87 85 88 94 99 104 105 99 96 99 103 103 100 95 91 86 76 65 57 50 42 36 30 26 23 23 22 21 19 18 18 17 16 16 16 16 15 14 13 12 12 11 10 9 9 8 8 8 7 8 8 7 7 7 7 7 7 6 6 5 5 5 5 5 5 5 5 5 5 5 5 5 5 5 5 5 5 5 5 4 5 6 6 7 7
Wind_Speed
79 80 81 83 84 85 86 87 88 89 89 90 90 90 91 91 90 91 92 93 93 92 91 92 93 92 91 91 92 92 93 94 95 96 97 97 98 98 98 99 100 101 101 102 103 104 105 105 106 106 107 107 108 109 109 110 110 111 111 111 112 112 113 113 113 113 113 113 113 113 113 113 112 112 111 111 110 109 109 108 107 107 106 106 105 105
74 75 76 78 79 80 81 82 83 83 84 85 85 85 85 85 85 85 86 86 87 87 86 87 88 87 88 88 89 91 93 94 95 96 97 98 98 99 99 100 101 101 102 103 104 105 105 106 107 108 108 109 110 111 111 112 112 113 113 113 114 114 114 114 113 113 113 112 112 112 111 111 110 110 109 109 108 108 107 107 107 106 106 106 106 105
69 70 71 73 74 75 76 77 77 78 79 80 80 80 80 81 81 81 82 83 84 84 84 86 86 86 86 88 90 91 93 94 96 97 98 99 99 100 100 101 102 102 103 104 105 106 107 108 109 110 111 111 112 113 113 113 114 114 114 113 113 113 112 112 111 111 111 110 110 110 110 109 109 109 109 108 108 108 108 108 107 107 107 106 106 106
66 68 69 70 71 71 72 73 74 75 76 76 77 77 78 79 79 79 80 81 82 83 84 86 86 86 87 89 90 92 93 95 96 97 98 99 99 100 101 103 103 105 106 107 108 109 109 110 111 111 112 112 112 112 112 112 112 112 112 111 111 111 110 110 110 110 110 109 109 109 109 109 109 109 109 108 108 108 108 108 107 107 106 106 106 105
64 65 67 67 68 69 69 70 71 72 73 75 75 76 77 78 79 80 80 81 83 84 86 87 88 86 87 89 90 92 94 96 97 98 99 100 101 102 103 104 105 106 107 108 108 109 109 109 109 110 110 110 110 110 110 110 110 110 110 110 110 110 110 110 110 109 109 109 109 109 108 108 108 108 107 107 107 106 106 106 106 106 105 104 104 103
62 63 64 65 66 67 68 69 70 71 73 75 76 77 78 79 80 81 82 82 83 85 87 89 90 88 87 89 91 93 95 96 98 99 100 101 101 102 103 103 104 104 105 105 106 106 107 107 107 108 108 108 108 109 109 109 109 109 109 109 109 108 108 108 108 107 107 107 106 106 106 106 106 106 106 105 105 105 105 106 106 105 105 105 104 104
61 62 63 64 65 67 68 69 70 71 73 75 76 77 78 79 81 82 83 84 85 86 87 89 91 89 86 87 90 92 93 94 96 97 97 98 98 99 100 100 101 102 102 103 104 104 105 105 105 106 106 106 106 107 107 107 108 107 108 107 107 107 107 107 107 107 107 106 106 106 106 107 107 107 107 107 107 108 108 108 109 109 109 109 109 108
61 62 63 65 66 67 68 70 71 72 74 76 77 78 79 80 82 82 83 84 85 85 86 87 88 87 85 85 87 89 90 92 93 93 94 95 95 96 97 98 99 99 100 101 102 102 103 104 104 105 105 106 107 107 108 108 109 109 109 109 109 109 109 109 109 109 109 109 109 109 110 110 110 111 111 112 112 112 112 113 113 114 114 114 114 113
63 64 65 66 67 69 70 72 73 74 75 76 77 78 78 79 79 80 80 81 82 82 83 84 85 86 84 83 85 87 88 89 90 91 92 93 94 95 96 97 98 99 100 101 102 103 104 105 105 106 107 108 108 109 110 110 111 111 111 111 111 112 112 112 112 112 112 112 112 112 112 113 113 113 114 114 115 115 115 116 116 117 117 117 117 116
65 66 66 67 69 70 71 72 72 73 73 73 73 73 74 74 74 75 76 77 78 79 80 82 83 84 83 83 85 87 87 89 90 91 92 93 94 95 96 97 99 100 101 102 103 104 105 106 107 108 108 109 110 110 111 111 112 112 113 113 113 113 113 113 114 113 113 113 113 114 114 114 115 115 115 116 116 117 117 118 118 119 119 119 119 118
61 62 62 63 64 65 66 67 67 67 67 67 68 68 69 70 71 72 74 75 77 78 80 82 84 86 86 85 86 88 89 90 91 92 94 95 96 97 98 99 100 102 103 104 105 106 107 108 109 110 110 111 112 112 113 113 114 114 115 115 115 116 116 116 116 116 116 116 116 116 117 117 117 118 118 119 119 120 120 120 121 121 121 121 121 121
53 53 54 56 57 58 60 62 63 64 64 65 66 66 68 69 70 72 74 76 78 80 82 84 86 88 89 89 89 90 91 92 93 94 95 96 98 99 100 101 102 103 104 106 107 107 108 109 110 111 112 112 113 113 114 115 115 116 116 117 117 117 118 118 118 118 119 119 119 119 119 120 120 120 121 122 122 123 123 123 123 123 124 123 123 123
51 51 51 52 54 56 58 61 63 65 66 67 69 70 71 71 72 74 76 78 80 82 84 87 89 90 91 92 92 92 93 94 95 95 96 97 99 100 101 102 104 105 106 107 108 109 110 110 111 112 113 113 114 115 116 116 117 117 118 119 119 119 120 120 120 121 121 121 121 121 122 122 123 123 124 124 124 125 125 125 125 125 125 125 125 125
51 52 53 55 57 58 60 62 65 67 68 70 71 73 74 75 75 76 77 78 79 81 84 88 90 91 92 93 94 94 95 96 96 97 99 100 101 102 104 105 106 107 108 109 110 111 112 113 113 114 115 116 117 118 118 119 120 120 121 122 122 123 123 123 124 124 125 125 125 125 125 126 126 126 126 127 127 127 127 127 127 127 127 127 127 127
50 52 54 56 59 60 62 64 66 68 70 71 73 74 76 77 77 77 78 79 79 79 82 87 90 92 93 94 95 96 97 98 99 100 102 103 104 105 106 107 108 109 110 111 112 113 114 115 116 117 118 118 119 120 121 122 122 123 123 124 125 125 126 126 127 127 128 128 128 129 129 129 129 129 130 130 130 130 130 130 130 130 130 130 130 130
52 53 55 57 59 61 63 65 68 69 71 73 74 75 77 78 79 80 81 82 82 81 83 87 90 92 94 95 96 97 98 99 101 102 103 104 105 106 107 108 109 110 110 111 112 113 114 114 115 116 117 118 119 120 121 122 122 123 124 124 125 126 127 127 128 128 129 129 130 130 130 130 130 130 131 131 131 132 132 132 132 132 132 132 132 132
54 56 58 60 62 63 65 66 68 70 71 72 74 76 77 79 81 82 83 84 85 85 85 88 90 92 94 95 96 97 98 99 100 101 102 103 104 105 106 107 107 108 109 110 110 111 112 113 113 114 115 116 117 118 119 120 121 121 122 122 123 124 125 126 126 127 127 128 128 129 129 129 129 130 130 130 130 130 131 131 131 131 131 132 132 132
56 57 59 61 63 64 66 67 69 70 72 74 75 77 79 80 83 84 85 85 86 87 87 88 90 91 92 93 93 94 95 96 97 98 99 100 100 101 102 103 104 105 105 106 107 108 109 110 111 111 112 113 114 115 115 116 117 118 119 119 120 121 122 122 123 124 124 125 126 126 127 127 127 128 128 128 128 128 128 129 129 129 129 129 130 130
56 58 60 61 63 65 67 69 72 74 75 77 78 79 80 81 83 85 86 85 85 85 85 85 87 88 88 89 89 89 89 90 91 93 94 95 96 97 98 99 100 100 101 102 103 104 105 106 107 108 108 109 110 111 112 113 113 114 115 115 116 117 118 118 119 120 121 121 122 123 123 124 124 125 125 125 125 125 125 126 126 126 126 126 127 127
57 59 61 63 65 67 69 71 74 77 79 81 82 83 83 84 84 85 85 85 85 84 82 82 83 83 84 85 85 85 85 86 87 88 88 90 90 92 93 94 95 95 96 96 97 98 99 100 101 102 103 104 105 106 107 108 110 111 111 112 113 113 114 115 116 117 118 118 119 120 120 121 121 122 122 122 122 123 123 123 123 123 124 124 124 124
58 61 64 66 68 70 72 74 76 78 80 81 81 82 82 82 82 82 83 83 83 83 82 81 80 80 81 82 83 83 83 84 84 84 84 85 86 87 88 89 90 91 92 92 93 93 94 95 96 97 98 99 100 101 102 103 104 105 106 107 108 109 110 111 112 112 113 114 115 116 117 118 118 119 119 120 120 120 120 120 120 121 121 121 121 121
61 64 66 69 72 74 76 77 78 79 79 78 78 77 77 77 77 77 78 78 79 80 81 81 81 80 80 80 81 81 81 81 81 81 82 82 83 84 85 86 87 88 88 89 90 91 92 93 94 95 96 97 98 99 100 101 101 102 102 102 103 104 105 106 107 107 108 109 110 111 112 113 114 115 116 116 117 117 117 117 118 118 118 118 118 119
65 68 70 73 75 76 77 77 77 76 76 76 76 75 74 74 74 75 75 75 76 77 78 79 80 79 78 78 79 78 79 79 78 78 78 78 79 80 81 82 83 84 85 85 86 87 88 89 90 91 92 93 95 96 97 98 99 99 100 100 100 101 102 102 103 104 104 105 106 106 107 108 109 110 111 112 113 113 114 114 115 115 115 116 116 116
68 70 73 75 76 76 76 76 75 74 73 73 73 73 72 72 71 71 71 72 73 73 73 74 75 76 75 75 76 76 76 76 76 76 76 76 76 77 78 78 79 80 81 82 82 83 84 85 85 86 87 88 89 90 92 93 94 94 95 96 97 97 98 99 100 100 101 102 102 103 104 104 105 106 107 107 108 109 110 110 111 112 112 113 113 114
71 72 73 74 74 73 72 72 71 71 70 69 69 68 68 67 66 65 65 68 69 70 70 70 71 73 74 73 74 74 74 75 75 74 74 75 75 75 76 76 76 77 78 78 79 79 80 80 81 81 82 83 84 85 86 87 87 88 89 90 91 92 93 94 95 96 96 97 98 99 100 101 102 102 103 104 104 105 106 107 107 108 108 109 110 111
73 73 73 72 70 69 68 67 66 66 65 65 64 65 65 65 64 63 62 65 67 68 70 70 69 71 73 73 73 74 74 75 74 74 74 75 75 74 74 75 75 75 75 76 76 76 76 77 77 78 78 79 80 80 81 82 82 83 83 84 85 86 87 89 90 91 91 92 93 94 95 96 97 98 99 100 100 101 102 103 103 104 104 105 106 107
74 73 72 71 69 69 68 66 65 64 63 62 62 62 63 64 64 62 61 64 66 66 68 70 69 69 71 72 72 73 74 75 74 74 74 74 74 74 74 74 74 74 75 75 76 76 76 77 77 78 78 78 79 79 80 80 80 80 80 81 81 82 83 84 86 87 87 89 90 91 92 93 94 95 95 96 97 97 98 99 99 100 100 101 101 102
74 73 72 71 69 68 67 66 65 63 61 61 61 61 62 63 64 62 61 64 66 66 67 69 70 70 71 71 72 72 73 73 73 71 72 73 73 73 73 74 74 74 75 76 77 78 78 79 79 79 79 79 79 79 79 79 79 79 79 79 80 80 81 82 82 83 84 85 86 88 89 90 91 92 93 93 94 95 95 96 96 97 97 97 98 99
75 74 72 70 69 67 66 65 64 62 60 60 60 61 62 64 65 63 62 64 67 67 68 68 70 72 71 71 72 72 72 73 72 70 70 71 72 72 73 74 74 75 75 76 77 78 79 79 80 80 80 80 80 80 80 80 80 79 79 79 79 79 79 80 81 81 82 83 84 85 86 87 88 89 90 91 91 92 93 93 94 94 95 95 96 96
74 73 72 70 68 67 66 64 63 61 60 60 60 61 63 65 67 66 64 64 66 67 68 68 69 70 71 71 71 72 73 74 73 71 71 73 73 73 74 75 75 76 77 77 77 78 79 79 80 80 80 80 80 80 80 80 80 79 79 78 78 78 78 79 79 80 80 81 81 82 83 84 85 86 87 87 88 89 90 90 91 91 92 92 93 93
73 72 71 69 67 67 66 64 63 62 62 61 61 62 62 65 68 68 65 65 66 67 68 68 67 68 69 69 70 70 71 73 73 71 71 72 73 73 74 75 76 77 77 78 78 79 79 79 79 79 79 79 80 80 80 79 79 78 78 77 77 77 77 77 77 78 78 79 79 80 81 82 82 83 84 84 85 86 86 87 87 88 88 89 90 90
73 71 70 68 67 66 66 65 64 64 63 63 62 62 63 64 68 69 68 66 67 66 66 67 66 66 67 66 67 67 68 70 71 69 68 70 71 72 73 74 76 76 77 78 78 79 79 79 79 79 79 79 79 79 79 78 78 77 76 76 76 75 75 75 75 75 76 76 77 77 78 79 80 80 81 81 82 82 83 83 84 84 85 85 86 87
72 70 69 67 67 66 67 67 66 65 64 64 63 63 64 64 67 70 69 67 67 67 66 66 66 66 67 66 65 66 67 69 70 68 67 68 69 71 72 73 74 75 76 77 78 79 79 79 79 78 78 78 78 78 77 77 76 75 75 74 74 74 74 74 74 73 74 74 74 75 75 76 77 78 78 79 79 79 79 80 80 80 81 82 83 83
72 71 69 67 66 66 66 67 67 65 64 64 64 64 64 64 65 68 69 68 68 68 68 68 67 67 67 66 66 65 66 69 70 69 69 70 70 70 72 73 73 74 75 76 77 78 78 78 77 77 76 76 76 76 76 75 74 74 73 73 73 72 72 72 73 72 73 73 73 73 73 74 75 75 76 76 76 77 77 77 77 77 77 78 79 80
72 71 69 68 67 66 66 66 66 67 66 66 65 65 64 64 64 66 69 70 69 69 69 68 67 67 67 67 66 65 66 68 71 70 69 71 71 72 72 73 74 74 75 75 76 76 77 76 75 75 74 75 75 74 74 74 73 72 72 72 72 72 71 71 72 72 72 72 72 72 72 73 73 74 74 75 75 75 75 75 75 75 75 76 77 77
73 71 70 69 68 67 67 67 68 69 69 69 68 67 66 66 65 65 67 69 69 69 69 68 68 68 67 67 67 66 65 68 70 70 69 70 72 73 74 74 75 75 76 76 77 77 77 76 75 74 73 73 74 73 73 73 72 71 71 71 71 71 71 71 71 71 71 72 72 72 72 72 73 73 74 74 74 74 74 74 74 74 73 74 75 75
74 74 73 72 71 70 69 68 68 69 69 69 70 70 69 69 68 67 68 70 71 70 70 70 70 70 70 69 69 67 66 67 70 70 69 70 72 74 75 76 76 77 77 77 78 78 78 77 75 74 73 73 73 73 72 72 72 71 71 70 70 70 70 70 70 70 71 71 71 71 71 72 72 72 73 73 73 73 72 72 72 72 71 71 72 73
77 78 77 76 75 75 74 72 70 70 70 71 72 72 73 73 72 71 71 72 73 73 73 74 74 73 73 73 72 71 68 67 71 73 71 71 72 74 75 76 76 76 77 77 77 77 77 77 75 74 73 73 73 72 72 72 72 71 71 70 70 69 69 69 69 69 70 70 70 70 70 70 70 71 71 72 71 71 70 70 70 69 69 69 70 71
80 81 81 80 80 79 79 79 78 77 76 77 77 77 78 78 78 77 76 76 77 78 78 77 77 77 77 76 76 75 73 71 72 75 75 74 74 74 75 75 75 75 75 76 76 76 77 76 75 74 73 73 73 72 72 72 72 72 71 71 70 69 69 68 68 69 69 69 69 69 69 69 69 69 69 70 70 69 68 68 68 68 68 68 69 70
83 83 84 84 84 83 82 83 84 84 83 82 83 83 83 83 84 84 83 82 82 83 83 82 81 80 80 80 80 80 80 78 77 77 78 77 77 76 76 77 76 76 76 76 76 76 76 76 75 75 73 73 72 72 72 72 72 72 72 71 70 69 68 68 68 68 68 68 68 68 68 68 68 68 68 68 68 68 67 66 67 67 67 68 69 69
85 85 86 86 87 87 86 85 85 86 86 86 86 87 87 87 88 88 89 89 88 88 88 87 86 85 84 84 84 83 84 83 82 81 81 80 80 80 80 79 79 79 78 78 78 77 77 76 76 75 74 72 72 72 71 71 72 72 71 71 70 69 68 67 68 68 68 68 68 68 67 67 66 67 67 67 67 67 66 65 65 66 66 67 67 68
86 87 88 89 89 90 90 88 87 87 88 89 90 90 91 91 91 91 92 92 92 91 91 91 90 89 88 88 89 88 86 86 85 85 84 84 83 83 83 83 82 82 81 81 80 79 78 78 77 76 74 72 71 71 70 70 71 71 70 70 69 69 68 67 68 68 67 67 68 68 67 67 66 65 66 66 66 66 65 64 63 63 64 64 65 66
88 89 90 91 92 93 94 94 93 92 92 94 94 95 95 94 94 94 94 94 94 93 93 93 93 93 92 91 91 90 89 88 87 87 87 87 86 86 86 86 85 85 84 83 82 81 80 79 78 77 75 73 72 71 70 69 70 71 70 70 69 68 67 67 67 67 67 67 67 67 67 66 65 65 64 64 64 64 63 62 61 61 61 62 63 64
90 91 92 93 95 96 97 99 99 99 98 98 98 99 99 98 97 97 96 96 96 96 96 96 96 96 95 93 92 92 91 90 89 89 89 88 88 88 88 88 87 87 86 85 84 83 82 81 80 79 77 75 72 72 71 70 70 71 71 70 69 68 67 67 67 66 66 66 66 66 66 65 65 64 63 63 62 62 61 59 59 59 59 59 61 62
89 92 94 94 96 97 99 100 101 101 101 101 101 101 101 101 100 100 99 99 99 99 99 98 98 98 97 96 95 94 93 92 91 91 91 90 90 90 89 89 89 88 87 87 86 85 83 82 81 80 79 76 74 73 71 70 70 71 71 70 69 68 67 67 67 66 65 65 65 65 65 65 64 64 63 62 60 59 58 57 56 56 56 57 58 59
89 91 93 95 95 96 98 99 101 102 102 102 103 103 103 103 103 102 102 102 102 102 102 101 101 100 100 99 97 96 96 94 93 94 93 92 92 92 91 91 90 90 89 88 87 86 84 83 82 81 79 78 76 74 72 71 70 70 71 70 69 68 67 67 66 66 65 65 65 65 65 64 64 63 62 61 59 57 56 54 54 54 54 55 56 57
89 90 92 95 97 97 98 99 101 103 104 104 104 104 105 105 105 104 104 104 104 104 104 104 104 103 102 102 100 98 98 97 96 95 95 94 94 93 93 92 92 91 90 89 88 86 85 83 82 81 80 78 77 75 73 72 70 70 70 70 68 67 67 67 66 66 66 65 65 65 64 64 63 62 62 60 58 56 54 52 51 51 51 53 55 56
90 91 92 95 97 99 100 100 100 102 104 105 105 105 106 106 106 106 106 106 105 105 106 106 106 106 105 104 102 101 100 99 98 97 97 96 95 95 94 93 92 91 90 89 88 87 85 84 82 81 80 79 77 76 74 72 70 70 70 69 68 67 67 67 66 66 65 65 65 64 63 63 61 61 60 59 57 55 53 50 49 48 48 49 52 54
92 93 94 95 97 100 102 103 102 102 103 105 106 106 106 107 107 108 107 107 107 107 107 108 108 108 108 106 105 103 102 101 100 99 98 98 97 96 96 95 93 92 91 90 89 87 86 84 83 81 80 79 77 76 74 72 71 70 70 69 68 67 67 66 66 66 65 64 64 63 62 61 60 58 58 57 56 55 52 49 46 46 47 48 49 50
94 95 96 96 98 100 103 105 106 105 105 106 107 108 108 109 109 110 110 110 110 110 109 109 109 109 109 109 107 105 104 102 102 101 100 100 99 98 97 96 95 94 92 91 89 88 86 84 82 81 80 79 77 76 75 73 71 71 70 69 68 67 66 66 66 65 64 63 62 61 60 59 58 57 56 55 54 54 53 50 45 41 43 47 49 48
94 96 97 98 98 100 102 105 107 108 108 108 109 110 110 111 111 112 112 112 112 112 112 112 111 111 110 110 109 107 106 104 104 102 102 101 101 100 99 98 96 94 93 91 90 88 86 84 82 81 79 78 77 76 75 73 72 71 71 70 68 67 66 65 65 64 63 62 61 60 59 57 56 56 55 53 53 53 53 53 48 41 37 39 45 48
Wind_Direction
267 268 268 269 269 270 270 271 271 272 272 272 272 272 273 273 273 274 274 275 275 275 275 275 276 276 277 277 277 277 277 278 278 278 278 278 278 278 278 278 279 279 278 278 278 278 278 278 278 278 278 278 278 278 278 278 278 278 278 278 277 277 277 277 277 277 277 277 277 277 277 277 276 276 276 276 276 276 276 276 276 275 275 275 275 274
268 268 269 269 270 270 271 271 272 272 272 272 273 273 273 273 274 274 274 275 275 275 275 275 275 276 276 277 277 278 278 279 279 279 279 279 279 279 279 279 279 279 279 279 279 278 278 278 278 278 278 278 278 278 278 278 278 278 278 278 277 277 277 277 277 277 277 277 277 277 276 276 276 276 276 276 276 276 276 276 275 275 275 275 274 274
269 269 269 269 270 270 271 271 272 273 273 273 274 274 274 275 275 275 275 275 276 276 276 276 276 277 277 278 279 279 280 280 280 280 280 280 280 280 280 280 279 279 279 279 278 278 278 278 278 278 278 278 278 278 278 278 277 277 277 277 277 277 277 277 277 276 276 276 276 276 276 276 276 276 276 276 276 276 276 276 275 275 274 274 274 273
270 270 270 270 271 272 272 273 274 274 275 275 276 276 276 277 277 277 278 278 279 279 279 279 279 279 280 280 281 281 281 280 280 280 280 280 280 280 279 279 279 279 279 278 278 278 278 278 278 278 277 277 277 277 277 277 277 277 277 277 276 276 276 276 276 276 276 276 276 276 276 276 276 276 276 276 276 276 276 276 275 275 274 274 274 273
272 272 272 273 273 274 275 275 276 277 278 278 278 279 279 280 280 280 281 281 282 282 282 281 281 280 281 281 281 281 280 280 280 280 280 280 279 279 279 279 279 279 278 278 278 278 278 277 277 277 277 277 277 277 277 277 277 277 277 276 276 276 277 277 277 277 277 277 277 277 277 277 277 277 277 277 277 276 276 276 275 275 274 274 273 273
274 274 275 276 277 277 278 279 279 280 280 281 281 282 282 283 283 283 283 283 283 283 283 282 281 280 281 281 281 280 280 280 279 279 279 279 279 279 279 279 279 278 278 278 278 278 278 278 278 277 277 277 277 277 277 277 277 277 277 277 277 277 277 277 277 277 277 277 277 277 277 277 277 277 277 276 276 276 275 275 274 274 274 273 273 273
277 278 278 279 280 280 281 281 282 282 283 283 284 284 285 285 285 284 284 284 283 282 282 281 281 280 280 279 279 279 279 279 279 279 279 279 279 279 279 279 279 278 278 278 278 278 278 278 278 278 278 278 278 278 278 278 278 277 278 278 278 278 278 277 277 277 277 277 277 277 277 277 276 276 276 276 275 275 274 274 274 273 273 273 272 272
280 281 282 282 283 283 284 284 284 284 284 284 284 285 285 284 284 284 284 284 283 283 282 282 282 281 281 280 279 279 279 279 279 279 279 279 279 279 279 279 279 279 279 279 279 279 279 279 279 278 278 278 278 278 278 278 278 278 278 278 278 277 277 277 277 277 277 277 276 276 276 276 275 275 275 275 275 274 274 274 273 273 273 272 272 272
283 283 284 284 284 285 285 285 285 285 284 285 285 285 285 285 285 285 285 285 285 285 284 284 284 283 283 282 281 280 280 280 280 280 280 280 279 279 279 279 279 279 279 279 279 279 279 279 278 278 278 278 278 278 278 278 278 278 278 278 277 277 277 277 277 277 276 276 276 276 275 275 275 275 274 274 274 274 274 274 273 273 273 273 273 272
283 284 284 285 285 285 285 285 285 285 285 285 285 286 286 286 286 286 286 286 286 286 285 285 284 284 284 283 282 281 281 281 281 280 280 280 280 280 280 280 279 279 279 279 279 279 279 278 278 278 278 278 278 278 278 278 278 278 278 278 278 278 277 277 277 277 276 276 276 276 275 275 275 275 274 274 274 274 274 273 273 273 273 273 273 273
284 285 285 286 286 286 286 286 286 286 286 286 286 287 287 287 287 287 287 287 287 286 286 286 285 285 284 284 283 283 283 282 282 282 281 281 281 281 280 280 280 279 279 279 279 279 278 278 278 278 278 278 278 278 278 278 278 278 278 278 278 277 277 277 277 277 276 276 276 275 275 275 275 274 274 274 274 274 273 273 273 273 273 273 274 274
285 286 287 287 287 288 288 288 288 288 287 287 287 287 287 287 287 288 287 288 288 288 287 287 286 286 286 285 284 284 283 283 283 282 282 281 281 280 280 279 279 279 278 278 278 278 278 277 277 277 277 278 278 278 278 278 278 277 277 277 277 277 277 277 276 276 276 276 275 275 275 274 274 274 274 273 273 273 273 273 273 273 274 274 274 274
292 293 293 293 292 292 292 292 292 292 292 291 291 290 290 289 289 289 289 289 289 289 289 288 287 287 286 286 286 285 284 283 282 282 281 281 280 280 279 279 279 278 278 278 278 278 278 278 278 278 278 278 278 278 277 277 277 277 277 277 277 277 276 276 276 276 275 275 275 275 274 274 274 273 273 273 273 273 273 273 274 274 274 274 274 274
301 301 301 300 298 297 296 296 295 295 295 294 293 293 292 291 290 289 289 288 288 289 289 288 288 287 287 287 287 286 285 285 284 283 283 282 281 281 280 280 280 279 279 279 279 279 279 279 279 279 279 278 278 278 278 278 277 277 277 277 277 277 276 276 276 276 276 275 275 275 274 274 274 274 274 274 274 274 274 274 274 274 274 274 274 273
300 300 299 299 298 297 297 296 295 295 294 294 293 293 292 292 291 290 289 288 288 287 287 287 287 287 287 287 286 286 286 285 285 284 283 283 282 282 282 281 281 280 280 280 280 280 280 279 279 279 278 278 278 278 278 278 277 277 277 277 277 277 276 276 276 276 275 275 275 275 274 274 274 274 274 274 274 274 273 273 273 273 273 273 273 273
300 299 298 297 296 296 296 296 295 295 295 295 295 295 295 294 294 293 293 292 290 289 288 287 287 287 287 287 286 286 286 285 285 284 284 284 283 283 283 282 282 281 281 281 281 280 280 280 279 279 279 279 278 278 278 278 277 277 277 276 276 276 276 276 276 275 275 275 275 275 274 274 274 274 274 273 273 273 273 273 273 273 273 273 273 273
303 302 301 300 299 299 298 298 297 297 297 297 297 297 297 296 296 295 294 294 293 292 291 290 289 288 288 288 287 287 287 287 286 286 285 285 284 284 284 283 283 283 282 282 282 281 281 281 280 280 279 279 279 278 278 278 277 277 277 276 276 276 276 275 275 275 275 275 275 274 274 274 274 273 273 273 273 273 273 273 272 272 272 272 272 272
304 303 303 303 302 302 301 301 300 300 300 299 299 298 298 298 297 296 296 295 294 293 293 291 291 290 289 289 288 288 287 287 287 286 286 285 285 285 284 284 283 283 283 283 282 282 282 281 281 280 280 280 279 279 278 278 278 278 277 277 277 276 276 276 276 275 275 275 275 274 274 274 274 274 273 273 273 273 273 272 272 272 272 272 272 272
306 306 306 305 305 305 305 305 304 304 303 303 302 301 301 300 299 298 297 296 295 294 294 293 292 291 291 290 290 289 289 288 288 287 287 287 286 286 286 285 285 284 284 284 283 283 282 282 282 281 281 280 280 280 279 279 279 278 278 278 277 277 277 276 276 276 276 275 275 275 275 275 274 274 274 274 273 273 273 273 272 272 272 272 271 271
310 310 309 309 309 309 308 308 308 307 307 306 306 305 304 303 302 301 300 299 298 297 296 295 294 294 294 293 293 292 292 291 290 290 289 289 288 288 287 286 286 286 285 284 284 283 283 282 282 281 281 281 280 280 279 279 279 278 278 278 278 277 277 277 276 276 276 276 275 275 275 275 275 274 274 274 274 273 273 273 272 272 272 272 271 271
314 314 313 313 313 312 312 311 310 309 308 307 306 305 304 303 302 302 301 301 301 300 300 299 298 298 298 297 297 296 296 295 294 293 293 292 291 291 290 289 289 288 288 287 287 286 285 285 284 283 283 282 282 281 280 280 279 279 278 278 278 278 277 277 277 276 276 276 275 275 275 275 275 274 274 274 274 273 273 273 273 272 272 272 272 271
318 318 317 317 316 315 314 313 312 310 309 308 307 306 305 304 303 303 303 303 303 303 303 303 302 302 301 300 300 299 298 297 296 296 295 294 293 292 291 291 290 289 289 288 288 287 287 286 286 285 285 284 284 283 283 282 282 281 281 280 279 279 278 278 277 277 276 276 276 275 275 275 275 274 274 274 274 273 273 273 273 272 272 272 272 271
322 321 321 319 318 317 315 314 313 312 311 310 310 309 308 308 307 307 307 307 306 305 305 304 303 303 303 302 301 301 300 299 298 297 296 295 294 293 293 292 291 291 290 289 289 288 287 287 286 285 285 284 284 283 283 283 282 282 282 282 281 281 280 279 279 278 278 277 277 276 276 275 275 275 274 274 274 274 273 273 273 273 272 272 272 271
325 323 322 320 319 318 317 316 316 315 314 313 313 312 311 310 310 309 308 307 306 305 304 304 303 303 303 303 302 302 302 301 301 300 300 299 297 296 296 295 294 293 293 292 291 290 289 289 288 287 286 285 285 284 283 283 282 282 282 281 281 281 280 280 280 279 279 278 278 277 277 276 276 275 275 275 274 274 274 273 273 273 273 272 272 272
326 324 323 322 321 320 319 319 318 318 317 316 314 313 312 310 309 309 309 308 307 307 307 306 306 307 307 307 306 306 305 305 304 304 303 302 301 301 300 299 298 297 296 295 294 293 292 291 290 289 288 288 287 286 285 285 284 284 283 283 282 281 281 280 280 279 279 278 278 278 277 277 276 276 275 275 275 274 274 273 273 273 273 272 272 272
326 325 325 324 323 322 322 321 320 319 319 317 316 314 313 312 312 312 313 312 311 312 312 311 312 312 311 311 311 310 310 309 308 308 307 306 305 305 304 303 302 301 300 299 298 297 296 295 294 293 293 292 291 290 289 288 287 286 285 284 284 283 282 282 281 281 280 279 279 278 278 277 277 276 276 275 275 274 274 274 273 273 273 272 272 272
328 328 328 328 328 327 326 325 324 323 322 321 319 317 317 316 315 317 318 316 315 316 316 316 316 316 315 315 314 313 313 312 311 311 310 309 308 308 307 306 305 304 304 303 302 302 301 300 300 299 298 297 296 294 293 292 291 290 289 288 286 286 285 284 283 283 282 281 281 280 279 279 278 278 277 277 276 276 275 275 274 274 274 273 273 272
331 332 332 332 332 331 329 329 328 328 326 325 324 322 321 320 320 322 324 322 320 321 321 320 320 319 318 318 317 316 314 313 312 313 312 311 310 310 309 309 308 307 307 307 306 305 304 304 303 302 301 300 299 298 297 296 294 293 292 291 290 289 288 287 286 285 284 283 282 282 281 280 280 279 279 278 278 277 277 276 276 276 275 275 274 273
335 336 336 335 335 334 333 332 332 331 331 330 329 328 327 326 324 326 328 327 325 325 325 324 323 322 321 320 319 318 316 315 315 315 315 313 312 312 311 311 310 309 309 308 307 306 305 304 304 303 302 302 301 300 299 298 297 296 295 294 293 291 290 289 288 287 286 285 284 283 282 281 281 280 280 279 279 278 278 277 277 277 276 276 275 275
339 339 339 339 338 337 336 336 336 335 335 335 334 334 333 331 329 330 332 331 329 329 328 327 326 325 324 323 322 321 320 318 318 319 318 316 315 315 314 313 312 311 310 309 308 307 306 305 304 304 303 303 302 301 300 299 298 297 296 295 294 293 292 291 290 288 288 287 286 285 284 283 282 281 281 280 279 279 279 278 278 277 277 277 276 276
343 343 342 341 341 340 340 340 340 340 340 340 340 339 338 336 332 332 335 334 332 331 330 329 328 327 325 325 324 323 322 320 319 321 320 318 317 316 315 313 312 312 311 310 309 308 307 306 305 305 305 304 303 302 301 300 299 298 298 297 296 294 293 292 291 290 289 288 288 287 286 285 284 284 283 282 281 281 280 280 279 279 279 278 278 277
346 346 345 344 344 344 343 344 344 345 344 344 343 342 342 340 336 335 337 336 334 333 332 331 330 328 327 327 326 325 323 320 320 321 320 318 317 316 315 314 313 313 312 311 310 309 309 308 308 308 307 306 305 304 303 302 301 300 299 298 298 296 295 294 293 292 291 290 290 289 288 287 286 286 285 284 283 283 282 282 282 281 281 280 279 279
348 349 348 348 348 348 348 348 348 348 348 346 346 346 345 344 340 337 338 338 336 334 334 333 332 331 330 330 328 327 325 322 321 322 321 319 318 317 316 315 315 314 314 313 313 312 312 311 311 310 309 308 307 305 304 304 303 302 302 301 300 298 297 296 295 294 293 292 291 290 290 289 288 287 287 286 285 285 284 284 283 283 282 282 281 280
350 351 351 351 351 351 351 351 350 350 349 348 349 348 347 346 344 341 340 340 338 337 336 336 336 335 333 332 331 331 329 326 324 325 324 322 321 320 318 318 317 317 317 316 315 314 314 313 313 312 311 310 308 307 306 306 305 304 304 303 302 301 300 299 298 297 296 294 293 292 291 290 289 289 288 288 287 287 286 286 285 285 284 283 283 282
352 353 353 353 353 354 354 353 352 351 351 351 351 350 349 349 348 345 342 342 341 340 339 339 337 336 335 334 333 333 332 329 326 327 326 325 324 323 322 321 321 320 320 319 317 316 315 315 315 314 313 312 311 309 308 308 307 306 305 304 303 303 302 301 300 299 298 297 296 294 293 293 292 291 290 290 289 289 288 288 287 287 286 286 285 284
354 354 355 355 355 355 356 355 355 354 354 353 352 352 351 350 350 349 346 344 344 343 341 340 339 338 337 336 335 334 334 331 329 328 328 327 326 326 325 325 324 324 323 321 320 319 318 318 317 316 315 314 313 312 311 310 309 308 308 307 306 305 304 303 302 301 300 299 298 297 296 295 294 293 292 292 291 291 290 290 289 289 288 288 287 286
355 355 356 357 357 357 357 357 357 356 355 354 353 353 352 351 351 351 349 347 346 345 344 343 342 341 340 339 337 336 336 334 331 330 331 331 330 329 328 328 327 326 325 324 322 321 320 320 319 318 317 316 315 314 313 312 311 311 310 309 308 307 306 305 303 302 301 300 299 298 297 296 295 295 294 293 293 292 292 292 291 290 290 289 288 287
357 357 357 358 358 358 358 358 358 357 356 355 355 354 354 353 352 352 352 351 349 348 347 346 345 344 343 341 339 338 337 337 334 332 333 334 333 332 331 329 328 327 326 325 324 323 322 321 321 320 319 318 316 315 314 313 313 312 311 310 309 308 307 306 305 303 302 301 300 299 298 297 297 296 295 295 294 294 293 293 292 292 291 290 289 288
358 358 358 359 359 359 359 359 358 358 358 357 356 356 355 355 354 353 353 353 351 350 349 349 347 346 345 343 341 339 338 339 338 336 335 336 335 333 332 330 329 328 327 326 325 324 323 322 322 321 320 319 318 317 316 315 314 313 312 311 310 310 309 307 306 305 304 302 301 301 300 299 298 298 297 297 296 296 295 294 294 293 292 291 289 288
358 359 359 359 360 360 0 0 360 359 359 358 358 357 357 356 355 354 354 354 353 352 351 350 349 348 347 345 343 342 340 341 341 339 337 337 336 335 333 332 331 330 329 328 327 326 325 324 323 322 321 321 320 318 317 316 315 314 313 313 312 311 310 309 308 306 305 304 304 303 302 301 301 300 299 299 298 297 296 295 295 294 292 291 290 289
359 359 360 360 360 0 360 1 1 0 360 359 359 358 357 357 357 356 355 354 354 353 352 351 350 349 348 347 345 344 343 342 342 340 339 338 338 336 335 334 333 333 332 330 329 328 327 326 325 324 323 322 321 320 318 317 316 315 314 314 313 312 312 311 309 308 307 306 306 305 304 303 302 301 300 299 298 297 296 296 295 294 293 292 291 290
359 360 0 360 360 0 360 360 1 1 0 360 360 359 358 358 357 357 356 355 354 354 353 352 351 350 350 349 347 346 345 344 343 341 340 340 339 338 337 336 335 334 333 332 331 330 329 327 326 325 324 323 322 321 320 319 318 316 315 315 314 313 313 312 310 309 309 308 307 306 304 304 303 302 300 299 298 297 297 296 296 295 294 292 291 290
0 360 0 0 360 0 0 360 360 1 1 1 0 359 358 358 357 357 356 355 355 354 353 352 352 351 351 350 349 347 346 345 344 342 341 341 340 340 339 337 337 336 335 333 332 331 330 329 328 326 325 325 324 323 321 321 319 317 316 316 315 314 314 312 311 310 309 309 307 306 305 304 303 302 301 300 299 299 298 298 297 296 295 293 292 290
0 360 0 1 0 0 1 0 360 0 1 1 1 360 358 357 357 357 356 355 355 354 354 353 352 351 351 350 349 347 346 345 344 343 342 342 341 340 339 338 338 337 336 334 333 332 331 330 329 328 327 326 326 324 323 322 321 319 318 317 316 316 315 313 312 311 311 309 308 307 306 305 304 303 303 302 302 301 301 300 299 297 295 294 292 291
360 360 360 1 1 0 0 1 360 360 0 1 0 360 359 357 357 356 356 355 355 354 354 353 352 352 351 350 349 348 346 345 345 344 343 342 342 341 340 339 338 337 336 335 334 333 332 331 330 329 328 327 327 325 324 323 322 321 319 318 318 318 316 314 313 313 312 311 309 308 307 307 306 306 305 304 304 303 302 301 300 298 296 294 293 291
359 360 359 0 1 1 0 0 360 359 360 0 360 359 359 357 356 356 356 355 355 354 354 353 353 352 351 350 349 348 347 346 345 344 343 343 342 342 341 340 339 338 337 336 334 333 333 332 330 329 328 328 327 326 325 325 324 322 320 319 319 319 317 316 315 315 313 312 311 310 310 309 308 308 307 306 305 304 303 302 301 299 298 296 294 292
359 359 359 359 360 0 0 1 0 359 359 359 359 359 358 357 356 356 355 355 355 354 354 353 352 352 351 350 349 349 347 346 346 345 344 343 343 342 341 340 339 339 337 336 335 334 333 332 331 330 329 329 328 327 326 325 325 323 321 321 321 320 318 317 317 315 315 314 313 312 311 311 310 309 308 308 306 305 304 303 302 301 300 298 296 294
358 358 359 359 359 359 360 0 1 359 358 358 359 358 358 357 356 356 355 355 354 354 354 353 352 351 351 350 349 349 348 347 346 345 344 343 343 342 341 340 340 339 338 336 335 334 333 333 332 331 330 329 328 327 327 326 326 324 322 322 322 320 319 318 318 317 316 315 314 313 313 312 311 310 309 308 307 306 305 305 304 303 301 298 297 296
358 358 358 358 358 359 358 359 360 360 359 358 358 358 357 357 356 355 355 354 354 354 354 353 352 351 351 350 349 348 348 347 346 345 345 344 343 342 341 341 340 339 338 337 336 335 334 333 332 331 330 330 328 328 327 327 327 325 324 323 322 321 320 320 319 318 317 317 315 314 314 313 312 311 310 309 309 307 306 305 305 305 302 299 297 296
357 357 358 358 358 358 358 357 358 359 358 357 357 357 357 356 356 355 355 354 354 354 353 353 352 351 350 349 349 348 348 347 346 345 345 344 343 342 342 341 340 340 338 337 336 335 334 333 333 332 331 330 329 328 328 328 327 326 324 324 323 322 322 321 320 319 318 317 316 315 315 314 313 312 311 311 310 308 307 305 305 305 303 301 298 296
357 357 357 357 357 357 357 357 357 357 358 357 356 356 356 356 356 355 355 354 354 353 353 352 352 351 350 349 348 348 347 347 346 346 345 344 343 342 342 341 340 340 339 338 336 336 335 334 333 333 332 330 329 329 328 328 328 326 325 324 324 323 323 322 321 320 319 318 317 316 316 315 314 313 312 312 310 309 308 306 305 303 301 300 298 297